Home   Weather   Carrickmacross   Past weeks
Flag for Ireland

Past Weather in Carrickmacross, Ireland — Yesterday and Last 2 Weeks

Now
50 °F

Cool.


Feels Like: 50 °F
Forecast: 51 / 39 °F
Wind: 2 mph from Northwest

Location: Glenanne

Current Time: Oct 21, 2019 at 2:18:28 pm

Latest Report: Oct 21, 2019 at 1:00 pm


Visibility: 28 mi

Pressure: 30.25 "Hg

Humidity: 66%

Dew Point: 39 °F

Location of CarrickmacrossLocation

Past Weather in Carrickmacross — Graph

°F

Carrickmacross Temperature Yesterday

Maximum temperature yesterday: 50 °F (at 3:00 pm)
Minimum temperature yesterday: 42 °F (at 9:00 pm)
Average temperature yesterday: 46 °F

High & Low Weather Summary for the Past Weeks

 TemperatureHumidityPressure
High59 °F (Oct 7, 3:00 pm)100% (Oct 12, 7:00 am)30.27 "Hg (Oct 12, 7:00 am)
Low37 °F (Oct 21, 8:00 am)60% (Oct 20, 3:00 pm)29.26 "Hg (Oct 18, 5:00 am)
Average48 °F88%29.58 "Hg
* Reported Oct 6 1:00 pm — Oct 21 1:00 pm, Carrickmacross. Weather by CustomWeather, © 2019

Note: Actual official high and low records may vary slightly from our data, if they occured in-between our weather recording intervals... More about our weather records

Advertising

Carrickmacross Weather History for the Previous 24 Hours

Scroll right to see more
 ConditionsComfort  
Time TempWeatherWind HumidityBarometerVisibility
1:00 pm
Mon, Oct 21
50 °FCool.2 mph66%30.25 "Hg28 mi
12:00 pm48 °FCool.3 mph74%30.26 "Hg16 mi
11:00 am46 °FCool.5 mph81%30.27 "Hg25 mi
10:00 am44 °FQuite cool.3 mph88%30.26 "Hg25 mi
9:00 am38 °FChilly.3 mph95%30.26 "Hg28 mi
8:00 am37 °FChilly.2 mph90%30.25 "Hg25 mi
7:00 am39 °FChilly.5 mph88%30.24 "Hg31 mi
6:00 am40 °FQuite cool.7 mph85%30.22 "Hg25 mi
5:00 am40 °FQuite cool.8 mph84%30.22 "Hg31 mi
4:00 am42 °FQuite cool.5 mph82%30.23 "Hg31 mi
3:00 am43 °FQuite cool.6 mph81%30.24 "Hg31 mi
2:00 am42 °FQuite cool.7 mph81%30.23 "Hg31 mi
1:00 am42 °FQuite cool.7 mph79%30.22 "Hg31 mi
12:00 am43 °FQuite cool.7 mph81%30.21 "Hg28 mi
11:00 pm
Sun, Oct 20
42 °FQuite cool.8 mph82%30.20 "Hg28 mi
10:00 pm42 °FQuite cool.7 mph81%30.19 "Hg31 mi
9:00 pm42 °FQuite cool.7 mph81%30.17 "Hg28 mi
8:00 pm43 °FQuite cool.7 mph80%30.15 "Hg28 mi
7:00 pm44 °FQuite cool.8 mph78%30.14 "Hg10 mi
6:00 pm47 °FCool.7 mph72%30.12 "Hg31 mi
5:00 pm48 °FCool.12 mph68%30.10 "Hg28 mi
4:00 pm50 °FCool.12 mph64%30.08 "Hg19 mi
3:00 pm50 °FCool.12 mph60%30.06 "Hg14 mi
2:00 pm49 °FCool.10 mph65%30.06 "Hg25 mi
Weather by CustomWeather, © 2019

See weather overview